Weather History for Ironwood, MI

Change the Weather History Date:

Friday, April 5, 2013

  Actual Average Record
Temperature  
Mean Temperature 26 °F -  
Max Temperature 35 °F 42 °F 66 °F (1998)
Min Temperature 17 °F 24 °F 1 °F (2014)
Degree Days  
Heating Degree Days 39    
Moisture  
Dew Point 13 °F    
Average Humidity 51    
Maximum Humidity 80    
Minimum Humidity 38    
Precipitation  
Precipitation 0.00 in - - ()
Sea Level Pressure  
Sea Level Pressure 30.17 in    
Wind  
Wind Speed 2 mph (South)    
Max Wind Speed 6 mph    
Max Gust Speed -    
Visibility 10 miles    
Events      
Averages and records for this station are not official NWS values.
T = Trace of Precipitation, MM = Missing Value Source: NWS Daily Summary

Daily Weather History Graph

Daily Weather History Graph

Search for Another Location

Airport:

Trip Planner

Search our weather history database for the weather conditions in past years. The results will help you decide how hot, cold, wet, or windy it might be!

Date:

Astronomy

Apr. 05, 2013 Rise Set
Actual Time 6:31 AM CDT 7:35 PM CDT
Civil Twilight 6:01 AM CDT 8:06 PM CDT
Nautical Twilight 5:24 AM CDT 8:43 PM CDT
Astronomical Twilight 4:45 AM CDT 9:22 PM CDT
Moon 3:55 AM CDT (4/5) 2:44 PM CDT (4/5)
Length of Visible Light 14h 05m
Length of Day
13h 03m
Waning Crescent, 23% of the Moon is Illuminated
Apr 5
Waning Crescent
Apr 10
New
Apr 18
First Quarter
Apr 25
Full
May 2
Last Quarter

Hourly Weather History & Observations

Time (CDT) Temp. Windchill Dew Point Humidity Pressure Visibility Wind Dir Wind Speed Gust Speed Precip Events Conditions
4:15 AM 19.4 °F - 12.2 °F 74% 30.16 in 10.0 mi Calm Calm - N/A   Clear
4:35 AM 19.4 °F - 14.0 °F 80% 30.17 in 10.0 mi North - - N/A   Clear
4:55 AM 21.2 °F - 12.2 °F 68% 30.17 in 10.0 mi North - - N/A   Clear
5:15 AM 19.4 °F - 12.2 °F 74% 30.17 in 10.0 mi Calm Calm - N/A   Clear
5:35 AM 17.6 °F - 10.4 °F 73% 30.18 in 10.0 mi Calm Calm - N/A   Partly Cloudy
9:55 AM 28.4 °F - 12.2 °F 51% 30.22 in 10.0 mi Calm Calm - N/A   Partly Cloudy
10:15 AM 28.4 °F 24.6 °F 12.2 °F 51% 30.22 in 10.0 mi South 3.5 mph - N/A   Partly Cloudy
10:55 AM 28.4 °F - 12.2 °F 51% 30.21 in 10.0 mi Calm Calm - N/A   Clear
11:15 AM 30.2 °F 26.7 °F 12.2 °F 47% 30.21 in 10.0 mi South 3.5 mph - N/A   Clear
11:35 AM 30.2 °F 24.3 °F 12.2 °F 47% 30.21 in 10.0 mi South 5.8 mph - N/A   Clear
12:35 PM 33.8 °F 30.8 °F 10.4 °F 38% 30.19 in 10.0 mi SW 3.5 mph - N/A   Clear
12:55 PM 33.8 °F 28.6 °F 10.4 °F 38% 30.18 in 10.0 mi South 5.8 mph - N/A   Clear
1:15 PM 33.8 °F 29.6 °F 12.2 °F 41% 30.17 in 10.0 mi WSW 4.6 mph - N/A   Clear
1:35 PM 33.8 °F 30.8 °F 10.4 °F 38% 30.17 in 10.0 mi SSW 3.5 mph - N/A   Clear
1:55 PM 35.6 °F - 12.2 °F 38% 30.16 in 10.0 mi Calm Calm - N/A   Clear
2:15 PM 35.6 °F 30.7 °F 15.8 °F 44% 30.15 in 10.0 mi NNE 5.8 mph - N/A   Clear
3:35 PM 35.6 °F 32.8 °F 15.8 °F 44% 30.13 in 10.0 mi ENE 3.5 mph - N/A   Clear
3:55 PM 35.6 °F - 15.8 °F 44% 30.12 in 10.0 mi Calm Calm - N/A   Clear
4:15 PM 35.6 °F - 14.0 °F 41% 30.12 in 10.0 mi Calm Calm - N/A   Clear
4:35 PM 35.6 °F 30.7 °F 15.8 °F 44% 30.11 in 10.0 mi North 5.8 mph - N/A   Clear